GFSFLT2_700_spd_057.txt.gz
Wind_Speed
18 22 27 30 39 38 31 39 32 31 30 29 27 26 25 23 21 19 17 14 13 13 11 12 14 12 12 12 10 9 8 6
28 32 36 31 23 10 14 39 30 29 30 30 29 28 26 24 21 19 16 13 10 10 12 13 15 14 11 10 9 8 7 5
27 30 30 33 19 26 22 30 38 30 30 31 30 30 27 25 23 20 18 15 11 9 9 9 13 14 12 10 7 7 6 5
26 24 22 22 24 19 31 39 43 35 34 34 33 31 28 27 25 23 20 18 14 10 8 6 7 8 8 8 6 6 6 6
19 16 18 6 3 18 17 29 36 39 36 34 34 32 30 29 27 24 22 16 12 9 7 6 6 6 7 6 5 5 4 4
17 13 5 11 8 9 22 27 35 41 39 36 34 33 32 28 27 25 22 11 10 11 8 6 6 6 6 6 5 4 3 3
12 16 17 15 15 17 20 23 38 38 37 36 36 35 33 30 25 22 18 14 10 7 7 6 7 8 8 6 4 2 1 2
15 13 15 16 15 18 22 29 40 39 36 38 38 36 34 25 23 18 20 15 12 9 7 7 6 8 10 7 4 2 3 4
11 18 16 18 13 24 18 33 36 39 39 38 39 38 30 31 24 22 20 16 11 8 6 5 5 7 6 4 4 5 6 7
16 24 18 12 17 28 25 38 39 40 41 41 40 37 34 31 25 21 23 16 12 9 6 5 5 5 5 6 7 9 10 11
17 19 16 16 18 17 27 35 41 43 46 46 44 40 41 30 22 29 25 18 15 10 7 6 5 5 7 8 10 12 14 14
24 21 17 21 22 30 37 40 45 49 57 52 40 38 37 34 29 31 24 19 17 14 10 8 6 7 9 11 12 14 18 19
25 26 26 28 18 24 27 25 38 47 55 38 36 39 39 30 36 32 24 20 17 16 14 11 8 10 12 13 16 18 21 23
13 29 28 23 21 23 26 29 27 35 39 34 40 36 33 37 36 28 22 20 19 19 18 16 15 15 16 19 21 22 24 22
9 5 16 25 29 25 27 26 32 39 35 32 39 40 34 39 36 26 25 26 25 23 22 20 20 20 21 21 26 29 28 29
11 11 12 18 25 29 25 26 29 33 29 32 37 37 36 36 30 29 28 27 26 24 25 25 24 23 25 24 29 26 30 34
9 12 14 16 19 23 25 25 27 30 32 32 34 33 31 33 31 29 27 27 26 24 25 28 30 27 28 25 31 30 29 37
8 8 9 11 13 15 16 19 22 24 25 23 24 25 26 25 27 27 26 29 27 31 29 33 33 35 20 25 29 29 27 34
10 10 10 10 10 10 11 14 15 16 19 20 22 23 24 24 25 26 24 22 29 19 27 24 27 19 22 26 30 26 33 31
12 11 11 11 11 10 10 12 14 15 19 18 22 23 22 21 22 24 24 21 19 16 18 24 25 26 27 29 26 32 31 36

GFSFLT2_700_spd_063.txt.gz
Wind_Speed
29 30 29 32 37 37 33 30 37 38 36 28 30 27 26 24 23 23 20 17 16 16 15 13 13 13 13 13 13 13 11 10
31 32 34 36 41 42 37 38 39 38 36 33 32 30 27 26 26 24 20 19 18 16 15 15 15 15 15 14 13 12 11 10
36 38 40 39 42 45 42 37 39 48 44 32 34 31 30 29 27 24 22 20 18 17 15 14 14 14 14 13 12 11 11 11
31 40 47 49 46 43 36 41 45 46 51 39 32 32 31 30 28 25 22 20 19 18 17 14 14 13 12 11 11 11 11 11
31 43 45 44 45 44 31 37 23 33 38 40 38 35 33 31 29 27 23 21 19 17 15 14 12 12 11 10 10 11 11 11
16 24 32 25 42 29 29 33 27 31 46 41 36 37 33 30 26 25 22 21 17 18 16 12 12 11 11 11 11 10 10 10
9 6 17 18 32 33 29 25 36 42 41 41 38 35 33 29 27 25 25 21 17 13 8 12 12 10 11 10 9 9 9 8
6 14 21 18 22 23 27 31 40 41 43 42 38 34 29 28 25 28 25 20 14 8 8 8 10 13 12 12 10 10 9 6
24 8 14 16 11 21 21 25 38 38 43 40 36 33 28 27 29 27 18 14 11 11 9 8 10 12 13 13 11 9 9 7
20 12 12 13 13 16 23 24 36 36 41 43 41 37 31 30 29 21 18 16 14 12 9 10 11 12 13 13 11 11 9 7
17 17 13 11 15 17 25 26 32 34 34 45 46 37 34 31 24 23 20 16 15 13 9 10 10 10 10 12 13 12 10 8
20 17 15 14 15 16 24 31 32 34 33 31 43 40 37 32 29 27 21 19 18 14 13 11 11 11 12 13 13 12 9 8
21 16 19 21 13 22 18 32 35 37 34 37 42 42 36 37 35 29 26 21 20 17 16 15 13 13 13 13 13 12 10 10
23 21 22 20 19 22 20 32 35 43 40 39 44 44 43 39 33 31 27 28 25 21 19 19 15 18 18 17 17 17 16 16
21 21 25 21 24 27 24 30 36 38 43 47 44 44 44 43 37 35 30 26 26 22 20 20 19 23 22 23 24 24 22 21
3 13 21 26 27 23 22 26 26 27 43 45 39 47 48 45 43 44 32 31 33 25 21 22 24 25 27 27 29 29 29 30
5 2 11 24 23 28 19 21 21 22 36 44 43 47 46 49 40 36 32 35 35 29 27 25 29 32 33 32 32 31 31 34
6 6 7 9 17 23 29 25 24 31 35 32 47 49 39 39 40 33 27 29 29 31 33 33 32 33 34 34 33 29 23 25
4 6 7 9 12 15 18 22 24 30 34 36 31 31 32 37 35 33 33 35 35 35 36 36 35 37 36 38 42 33 29 25
5 6 7 8 9 9 11 13 14 18 21 25 26 27 27 29 33 33 36 36 35 35 36 38 37 39 34 32 24 22 29 29

GFSFLT2_700_spd_069.txt.gz
Wind_Speed
23 25 25 31 31 35 27 35 30 26 25 25 18 14 14 13 14 17 17 17 17 17 16 15 14 13 13 13 14 14 13 11
25 26 28 31 31 31 21 29 30 27 28 24 21 19 17 11 17 18 19 18 18 18 16 15 15 14 14 15 13 11 11 10
26 24 28 31 31 33 27 24 30 29 28 25 25 23 25 17 19 19 20 21 19 17 17 15 15 14 14 14 14 12 10 10
29 26 26 29 32 35 28 24 27 30 33 29 30 24 27 26 20 21 22 21 20 18 16 15 14 14 14 14 12 12 12 11
26 26 29 29 35 32 31 32 30 38 39 34 28 28 31 35 25 27 26 23 22 20 18 16 15 15 16 15 14 14 14 13
19 24 25 31 35 36 37 45 40 38 36 36 36 36 36 32 29 30 27 25 23 20 19 18 17 17 15 14 14 15 14 13
19 23 28 29 38 38 43 43 40 42 36 37 32 33 37 34 32 31 28 25 23 21 20 19 18 16 14 15 15 15 14 14
18 19 26 22 38 47 42 47 41 38 39 22 28 37 41 36 34 32 28 26 24 22 20 18 17 16 14 13 14 15 15 14
10 2 6 10 21 30 44 47 30 44 38 28 35 42 43 37 34 33 30 28 27 24 19 17 17 16 16 15 15 15 15 15
9 10 1 3 6 12 35 36 41 36 29 29 37 41 37 36 33 32 29 29 26 22 20 19 16 15 16 16 17 16 15 15
13 11 5 6 5 20 23 26 19 29 34 33 39 42 36 35 31 30 30 30 27 23 20 17 15 15 15 17 18 17 16 16
20 16 10 9 14 12 15 23 24 29 35 36 44 49 38 39 34 30 30 30 26 22 19 16 15 15 14 15 16 17 17 16
25 20 19 13 11 14 17 18 21 38 39 34 41 44 36 38 43 40 33 29 26 20 17 16 18 17 16 14 13 13 15 16
18 17 16 18 16 14 16 17 15 30 34 32 37 40 44 46 43 39 42 32 26 25 22 21 20 17 14 13 14 14 13 15
17 16 19 17 16 18 17 18 21 28 37 31 41 45 46 43 45 42 35 33 29 28 28 25 23 21 18 17 15 12 13 17
10 14 20 20 20 20 19 16 20 21 30 36 37 47 49 51 43 42 40 38 37 34 32 29 25 23 25 23 19 17 11 12
3 10 18 22 23 21 22 24 21 21 29 38 37 42 45 44 45 50 47 44 41 36 34 34 31 27 29 25 25 23 22 22
3 4 8 15 20 21 23 25 23 22 30 32 34 41 44 50 51 50 48 44 45 39 40 40 32 34 30 29 28 26 24 26
5 3 3 4 10 20 26 26 27 29 27 27 34 33 45 52 52 52 50 46 41 44 43 41 31 35 34 33 31 33 30 30
8 7 5 3 4 7 15 23 30 27 24 25 33 32 36 47 49 54 52 49 48 42 47 39 36 43 42 39 36 38 36 36

GFSFLT2_700_spd_072.txt.gz
Wind_Speed
22 23 22 29 30 44 43 47 23 28 24 22 19 18 16 15 11 15 17 17 16 17 17 16 17 15 14 13 12 10 12 11
18 22 23 27 30 29 29 31 38 45 32 22 22 19 16 13 18 18 18 18 18 18 17 17 15 15 15 14 12 10 13 11
23 24 25 28 28 29 30 26 35 29 29 26 28 22 19 13 15 21 19 19 19 18 18 16 16 17 16 16 15 15 13 13
32 30 28 26 25 25 24 22 20 29 32 33 31 26 24 20 18 21 21 21 20 19 19 17 16 17 17 16 15 15 13 13
17 21 24 25 24 24 21 24 23 26 41 36 35 30 28 28 23 25 23 22 22 21 19 17 16 17 17 15 14 14 13 12
7 11 22 24 26 25 24 22 24 28 35 38 34 32 28 27 28 25 24 23 23 21 21 19 18 17 15 15 16 12 13 13
9 11 18 24 27 25 30 28 25 34 42 39 29 31 25 28 32 28 27 26 23 22 20 19 19 17 15 17 15 13 14 13
15 15 16 23 31 27 26 31 31 25 43 26 28 25 20 26 32 25 26 25 23 23 20 19 18 16 17 16 17 12 15 15
14 14 11 15 18 23 35 38 34 34 38 38 28 27 26 26 34 31 28 26 26 25 21 20 18 17 17 17 16 15 14 15
14 17 13 13 8 20 17 27 36 35 28 26 26 29 30 30 34 36 31 30 28 26 23 22 20 18 18 16 15 16 14 14
17 13 11 6 5 13 19 30 34 38 33 32 29 25 30 37 39 35 34 30 31 28 26 23 20 18 17 16 16 15 15 15
17 15 7 3 4 10 10 18 37 29 29 26 24 25 31 36 37 33 32 37 29 28 26 21 18 17 15 16 17 16 16 17
10 17 10 4 4 12 12 22 19 23 25 26 27 36 37 47 33 36 35 34 30 26 25 23 18 18 17 14 15 16 17 18
10 19 12 11 7 10 14 13 14 15 21 30 30 37 35 40 39 37 34 31 30 30 29 23 18 16 15 14 16 17 16 15
5 12 13 11 12 12 13 14 14 20 27 28 30 29 33 47 42 37 40 35 33 35 37 31 21 20 20 23 23 16 15 18
3 10 12 16 15 11 13 13 14 16 19 24 32 28 36 49 51 45 47 38 41 39 38 28 26 26 26 25 21 21 20 18
1 5 11 17 16 15 15 14 12 17 18 25 33 29 26 42 45 42 41 42 44 42 38 35 31 29 31 31 28 24 24 23
3 2 5 11 19 17 21 18 20 20 19 22 30 30 34 38 37 42 45 48 44 44 42 29 31 33 30 28 29 27 27 27
5 4 2 5 11 16 20 20 22 23 16 20 24 29 35 34 39 44 49 50 48 45 40 38 42 40 38 33 29 31 30 30
6 5 4 2 3 8 16 24 25 22 24 20 21 26 25 23 35 40 48 52 48 49 50 48 46 45 41 34 30 31 35 35

GFSFLT2_700_spd_075.txt.gz
Wind_Speed
19 18 20 27 28 30 34 39 39 30 28 31 33 26 20 19 16 16 19 19 19 18 17 17 16 16 15 13 12 11 13 15
22 23 23 25 27 28 28 32 39 40 37 41 32 24 21 21 19 19 20 20 20 19 18 18 18 18 15 13 14 16 15 14
21 27 27 28 25 26 26 25 27 30 24 28 32 26 21 23 22 18 21 21 21 20 20 20 19 17 16 15 15 15 14 13
25 30 29 31 28 25 23 22 23 27 31 38 33 28 22 20 26 27 24 23 22 22 22 22 20 19 18 14 13 14 13 13
25 20 20 23 28 24 21 18 18 19 29 40 45 33 28 24 23 27 27 27 26 26 24 22 21 20 19 14 13 14 13 13
21 17 15 18 22 20 21 20 16 12 29 43 39 36 31 27 24 25 25 25 24 24 23 22 22 21 17 13 12 14 15 15
18 15 13 16 22 19 23 20 15 18 20 36 39 37 30 28 24 25 27 27 26 25 25 24 22 19 18 16 13 16 16 15
17 15 13 16 20 25 24 20 24 17 19 42 41 36 28 26 16 31 28 28 28 27 25 24 22 20 19 16 13 17 17 15
18 17 13 17 21 24 23 19 17 17 24 38 35 28 24 22 21 32 30 30 30 29 26 23 22 22 21 17 14 15 15 15
19 16 16 15 16 18 26 26 27 24 24 33 36 16 21 25 24 33 30 31 30 30 26 24 22 22 20 17 15 13 14 13
21 16 13 12 13 16 24 23 29 26 24 36 39 28 24 25 24 35 40 32 31 26 26 25 25 23 20 17 16 12 14 15
21 16 10 9 8 12 17 18 27 32 27 32 32 27 29 26 29 36 39 36 32 32 29 28 25 23 21 19 17 14 15 15
20 8 11 7 4 14 19 24 23 27 31 35 34 27 23 27 30 35 42 37 34 32 30 29 27 25 21 20 18 17 17 17
14 12 15 6 2 11 16 21 27 32 32 27 26 26 26 32 31 37 41 42 42 34 32 31 28 21 17 15 16 17 18 20
6 9 10 10 8 6 16 24 24 32 32 33 34 29 29 32 33 36 40 33 42 33 31 30 26 23 32 25 27 22 18 18
4 7 9 8 11 9 9 10 17 26 29 27 26 28 35 31 36 44 38 37 39 25 30 30 32 36 32 27 22 21 24 22
3 5 6 8 11 14 11 12 10 17 21 22 26 24 28 26 27 43 40 39 35 34 34 35 36 37 33 30 29 27 25 28
3 2 5 6 8 13 11 13 12 11 20 24 25 25 29 28 29 43 47 47 44 38 37 37 39 37 37 37 31 29 28 29
3 2 2 3 4 8 15 15 14 13 15 13 19 25 25 26 27 32 45 47 44 41 40 40 40 43 44 35 28 25 30 34
2 2 1 1 3 3 8 12 16 17 17 14 14 18 23 21 24 22 31 39 41 44 43 43 48 43 40 34 31 32 32 33

GFSFLT2_700_spd_078.txt.gz
Wind_Speed
26 25 22 21 22 26 33 35 39 40 33 39 27 31 31 26 24 22 23 23 23 21 19 18 17 15 16 17 16 13 14 15
24 24 24 24 24 27 31 31 39 37 35 37 18 34 32 26 24 23 23 23 23 21 20 20 17 15 16 17 16 15 16 15
25 22 23 26 28 28 30 28 28 30 30 36 33 41 32 26 25 25 24 24 25 24 22 21 18 17 17 15 16 16 15 14
22 22 25 26 25 30 28 25 26 28 27 28 27 36 33 25 24 24 28 26 25 24 24 23 20 18 17 18 17 15 15 15
21 23 23 21 19 24 27 26 24 24 24 26 23 39 34 29 28 27 29 29 28 27 26 24 21 19 17 17 17 16 16 16
20 21 22 20 17 19 28 27 24 20 21 24 29 36 34 33 32 33 29 30 29 29 28 24 23 20 17 16 16 16 16 17
19 21 21 19 17 16 21 24 22 20 24 26 39 47 35 32 31 34 33 31 33 30 28 26 24 19 18 18 18 17 17 17
19 20 21 18 18 18 19 21 22 20 21 16 45 48 35 33 27 29 32 32 32 30 30 28 24 19 19 19 19 18 17 17
19 20 21 19 19 19 24 23 24 23 17 19 42 42 37 30 26 24 29 31 32 31 31 30 25 22 21 19 18 16 17 16
19 21 21 20 19 19 22 25 23 20 18 23 40 38 34 31 28 20 28 33 34 35 32 28 26 23 21 19 17 14 16 16
20 21 22 19 15 18 21 24 24 22 22 32 43 36 36 31 26 18 33 35 37 35 32 29 27 26 22 19 17 15 15 16
20 23 19 12 11 13 16 23 26 26 24 25 38 34 24 23 23 28 32 37 37 34 32 30 28 27 23 22 19 17 16 16
19 21 8 8 9 14 14 24 26 29 28 23 41 43 29 21 29 29 30 42 39 34 34 31 29 28 27 26 22 18 19 20
16 11 8 6 5 5 16 24 24 36 31 29 33 40 34 29 25 28 39 42 40 36 35 33 31 29 30 26 24 22 20 22
13 5 8 7 5 5 12 20 27 26 33 37 33 36 32 28 27 29 35 43 43 40 37 35 32 33 30 27 23 21 20 25
12 7 7 7 7 5 7 15 26 31 31 26 28 30 27 31 25 31 39 41 40 40 37 32 30 31 30 27 26 27 30 22
11 6 4 8 8 9 8 9 14 31 39 35 31 30 28 26 26 31 37 39 44 45 44 38 31 31 31 31 26 33 23 27
9 6 2 5 9 11 10 9 12 15 26 33 33 32 24 27 32 27 30 37 41 42 40 31 30 32 32 31 32 34 27 30
8 5 2 1 4 10 14 12 15 12 13 22 27 27 30 23 34 27 34 40 37 30 35 27 31 35 37 36 34 35 34 36
8 5 3 2 2 2 8 15 16 16 16 18 15 17 23 24 28 27 25 35 41 37 35 32 35 38 40 41 41 42 40 35

GFSFLT2_700_spd_081.txt.gz
Wind_Speed
23 27 22 20 18 20 25 30 37 42 47 39 39 37 44 25 27 22 23 26 26 24 21 19 17 15 15 15 14 14 14 13
28 26 25 22 20 22 24 27 33 39 44 39 30 29 29 36 29 24 22 26 25 24 22 20 17 15 16 16 16 14 15 15
26 24 26 22 22 25 29 28 31 36 36 35 35 33 25 35 29 24 29 28 25 24 24 21 19 19 18 17 16 15 16 16
27 26 27 22 22 24 27 31 32 33 32 28 30 25 30 31 32 27 27 26 27 26 25 24 23 21 20 20 18 17 17 17
28 28 28 24 23 21 21 28 35 31 26 27 27 25 23 36 34 34 31 26 27 26 25 23 22 20 19 19 18 18 17 17
28 28 28 24 24 20 22 26 29 24 25 26 26 24 23 43 38 37 37 37 31 29 25 23 23 21 20 19 17 17 18 16
29 31 29 23 22 21 19 22 24 24 23 24 25 26 23 43 39 35 35 35 31 29 29 25 24 23 21 19 18 18 19 17
28 30 27 23 23 21 19 21 21 30 25 25 26 24 27 38 39 36 33 33 32 32 27 27 26 23 20 20 20 19 18 18
28 30 27 23 24 23 21 25 25 29 25 26 26 33 42 41 37 34 34 33 31 30 29 28 27 24 22 21 20 17 18 18
28 31 28 26 26 25 21 26 29 28 28 27 30 32 39 39 35 33 34 34 35 36 33 31 28 25 24 22 19 17 18 18
28 30 28 28 27 24 21 23 26 20 31 25 21 38 47 39 32 31 28 31 36 36 34 31 27 26 24 21 18 17 17 18
27 29 27 27 21 18 18 22 25 19 25 20 26 40 42 38 33 28 24 27 34 36 35 31 28 26 25 23 20 19 18 19
26 27 25 16 11 13 16 20 21 25 29 21 30 42 40 36 34 27 22 28 34 35 34 32 32 31 27 27 25 23 21 22
24 23 19 10 10 9 13 17 20 26 30 22 32 41 41 40 35 28 25 30 33 34 36 36 35 33 31 30 28 26 26 25
20 19 14 12 10 6 6 13 22 26 29 28 32 42 40 36 25 31 33 32 27 37 38 37 36 35 32 33 30 29 27 25
16 17 12 11 10 4 2 13 22 23 25 29 30 40 39 33 25 29 28 28 37 38 39 36 36 35 34 33 28 25 28 28
15 15 10 8 9 5 3 3 17 23 36 30 32 37 36 41 32 26 27 34 38 40 41 40 40 36 34 33 29 28 34 29
13 13 7 7 10 10 7 6 8 19 25 35 28 26 36 31 26 30 32 33 39 42 40 41 41 37 32 30 31 34 35 29
12 12 6 6 7 10 12 9 10 9 18 24 33 31 31 30 31 31 30 31 36 40 39 41 44 38 33 32 33 34 33 32
12 11 7 6 5 5 10 14 12 14 12 17 23 29 31 33 21 25 26 33 31 35 41 43 43 38 39 36 36 38 36 34

GFSFLT2_700_spd_084.txt.gz
Wind_Speed
17 19 21 21 20 19 16 19 25 31 33 38 38 37 36 25 30 29 23 22 20 21 19 19 17 17 17 16 15 14 14 13
19 20 20 19 22 20 18 19 24 28 33 37 40 42 35 32 37 24 31 23 22 21 20 21 19 19 18 16 15 15 15 14
17 19 22 22 24 20 20 21 26 29 30 32 36 36 30 39 33 40 33 28 24 23 24 21 21 21 20 18 16 15 15 15
18 20 21 24 26 22 23 23 26 31 32 33 33 31 25 25 30 31 31 29 26 26 26 25 23 22 20 19 17 16 16 16
17 19 22 25 26 25 24 23 25 31 32 33 32 26 20 25 23 38 34 31 28 29 28 25 22 20 18 18 17 16 17 16
19 20 23 25 27 26 26 24 22 28 32 37 29 25 26 24 14 33 34 31 30 28 27 25 23 22 19 18 17 17 17 16
20 22 23 25 27 26 25 24 23 24 29 30 24 25 25 31 24 31 38 31 29 28 27 25 24 24 22 20 17 18 17 16
21 21 24 27 28 27 27 25 23 25 24 24 24 25 27 32 30 38 40 35 33 28 26 26 25 23 20 20 20 18 17 17
23 22 24 28 29 27 28 25 24 25 24 26 24 25 26 22 30 43 39 37 35 34 30 33 28 27 23 20 20 19 17 16
26 23 25 30 32 30 28 27 24 26 22 30 27 28 22 15 38 37 38 38 35 32 31 30 29 26 24 21 19 19 17 17
28 23 25 31 34 31 27 24 24 25 27 30 28 30 32 28 38 40 38 36 34 31 29 29 30 27 25 23 20 18 17 19
28 23 26 31 33 30 20 19 21 25 30 30 38 35 31 29 38 43 38 37 37 35 33 29 29 26 26 25 21 20 18 20
24 20 26 29 30 19 16 13 18 24 28 22 28 36 30 32 46 42 39 36 34 35 33 33 33 31 29 30 25 24 22 23
19 20 24 26 21 15 15 18 22 22 24 19 25 28 38 46 41 38 36 35 36 32 32 33 35 34 34 30 28 26 25 23
16 20 24 23 16 14 15 18 16 21 21 28 20 25 43 43 39 37 35 32 35 34 32 35 32 32 31 31 30 28 24 26
17 18 23 20 14 13 12 11 12 20 16 28 19 32 47 43 40 38 31 34 35 35 32 34 30 33 33 31 29 28 25 28
16 18 18 16 13 11 9 6 10 16 16 19 23 34 39 41 44 42 36 38 36 36 38 39 33 34 33 30 32 29 33 28
18 17 15 14 12 11 10 5 5 13 17 25 31 35 42 43 40 28 28 32 35 39 36 30 33 32 32 31 32 30 30 28
19 14 12 13 11 9 10 8 5 8 18 15 30 34 40 42 35 36 31 30 34 40 35 33 37 41 39 37 35 32 32 31
20 15 10 10 8 7 8 9 7 8 10 20 27 31 32 26 27 32 25 24 26 32 35 39 40 40 38 39 39 35 33 32

GFSFLT2_700_spd_087.txt.gz
Wind_Speed
11 13 14 14 14 14 14 13 14 16 20 25 26 28 27 32 31 38 25 23 20 19 18 16 16 17 17 17 17 17 16 15
13 15 16 14 14 15 15 14 15 18 22 25 29 32 33 42 36 25 29 24 21 20 19 17 18 19 19 20 19 18 17 15
15 16 16 15 16 15 16 14 17 20 23 25 28 33 33 35 34 36 38 29 30 22 20 19 21 21 21 20 19 18 16 16
16 16 15 15 17 17 18 17 19 21 23 27 30 30 29 34 38 27 42 37 35 39 24 23 25 25 23 22 20 17 16 15
17 14 15 17 18 19 19 20 21 20 22 27 29 29 29 32 36 31 40 26 25 40 26 26 25 22 21 20 19 17 16 17
17 15 16 18 19 20 20 21 20 21 22 25 30 29 30 30 18 24 26 27 30 35 29 26 25 24 23 20 18 17 17 16
16 16 16 16 18 21 21 21 20 21 23 23 31 35 30 22 17 21 20 30 35 35 28 28 27 27 25 23 20 18 18 16
17 17 18 19 18 21 23 22 21 23 23 23 27 29 28 24 25 28 16 31 33 36 29 27 27 26 25 22 21 19 20 17
19 21 21 22 21 22 25 23 24 24 23 24 27 29 28 23 28 36 25 24 35 37 33 31 30 27 25 22 20 20 19 18
24 25 25 24 23 24 27 26 25 26 25 26 27 28 27 28 32 33 25 31 39 36 33 32 31 27 26 24 20 19 18 19
25 27 28 27 25 26 29 29 26 25 25 29 27 26 27 28 28 29 32 41 39 36 35 32 33 30 24 25 21 20 18 19
26 27 29 28 26 28 29 27 22 21 24 29 28 29 30 30 29 24 36 44 41 39 35 33 30 24 27 27 23 22 19 19
23 20 20 25 26 28 29 20 18 18 23 31 34 31 33 40 24 28 41 43 40 36 35 33 34 33 30 29 27 25 23 22
22 19 19 24 27 27 26 19 17 20 23 29 33 28 39 41 33 37 41 39 38 37 36 34 36 33 32 30 30 28 25 23
19 19 19 24 24 26 22 19 18 22 26 30 36 27 34 41 36 30 44 42 38 37 36 35 30 32 33 33 31 29 24 23
21 20 19 21 22 23 19 17 18 16 18 27 30 27 27 36 39 31 47 41 39 36 35 34 35 38 35 33 31 26 23 23
21 19 18 18 19 20 16 14 13 11 15 20 19 22 25 35 41 47 44 39 37 36 35 33 33 33 31 29 29 28 27 23
21 19 17 16 18 16 13 12 10 10 12 17 16 19 24 43 42 42 41 39 36 36 33 34 32 33 32 32 31 27 24 26
24 17 14 15 15 13 10 11 9 7 13 16 14 26 38 47 48 45 44 42 40 36 36 35 37 36 37 33 31 29 27 26
25 21 14 14 12 9 9 8 9 6 11 15 10 25 29 38 41 43 43 39 32 31 39 40 42 40 34 34 33 34 32 31